Track GONETS M-7 now! 10-day predictions GONETS M-7 is classified as:
1 39251U 13048C 25199.58401688 .00000043 00000-0 24126-3 0 9997 2 39251 82.4874 194.0807 0016061 217.7032 142.2924 12.42899554537390